Regional Weather Roundup
Issued by NWS Cleveland, OH

Home | Current Version | Previous Version | Graphics & Text | Print | Product List | Glossary On
Versions: 1 2 3 4 5 6 7 8 9 10 11 12 13 14 15 16 17 18 19 20 21 22 23 24 25 26 27 28 29 30 31 32 33 34 35 36 37 38 39 40 41 42 43 44 45 46 47 48 49 50
000
ASUS41 KCLE 251710
RWRCLE
OHIO REGIONAL WEATHER ROUNDUP
NATIONAL WEATHER SERVICE WILMINGTON, OH
100 PM EDT SUN SEP 25 2016

NOTE: "FAIR" INDICATES FEW OR NO CLOUDS BELOW 12,000 FEET WITH NO
SIGNIFICANT WEATHER AND/OR OBSTRUCTIONS TO VISIBILITY.

OHZ001>008-015>018-024>027-034-035-043-044-251800-
   NORTHWEST OHIO

CITY           SKY/WX    TMP DP  RH WIND       PRES   REMARKS
DEFIANCE       FAIR      73  52  47 E6        30.15F
FINDLAY        FAIR      74  49  41 CALM      30.14F
TOLEDO EXPRESS FAIR      71  50  47 CALM      30.17F
TOLEDO EXEC    FAIR      72  50  45 VRB7      30.17F
LIMA           FAIR      75  58  55 CALM      30.15F
$$

OHZ009>014-019>023-028>033-038-089-251800-
   NORTHEAST OHIO

CITY           SKY/WX    TMP DP  RH WIND       PRES   REMARKS
CLE-HOPKINS    FAIR      72  43  35 E3        30.19F
CLE-LAKEFRONT  FAIR      71  43  36 NE7       30.16F
CUY CO. ARPT   PTSUNNY   70  50  49 E9        30.19F
LORAIN-ELYRIA  FAIR      70  42  36 E6        30.17F
ASHTABULA      FAIR      67  36  31 NE5       30.21F
AKRON-CANTON   FAIR      70  46  42 VRB3      30.18F
WOOSTER        FAIR      70  47  43 SE5       30.17F
MANSFIELD      FAIR      73  46  38 SE8       30.17F
YOUNGSTOWN     FAIR      68  46  45 NE5       30.19F
$$

OHZ042-051>053-060>062-070>072-077>081-251800-
  SOUTHWEST OHIO

CITY           SKY/WX    TMP DP  RH WIND       PRES   REMARKS
CINC-COVINGTON FAIR      80  65  59 CALM      30.13F
CINC-LUNKEN    FAIR      80  66  62 CALM      30.13F
HAMILTON       FAIR      80  63  55 SE6       30.13F
DAYTON         FAIR      77  60  55 CALM      30.15F
WRIGHT-PAT AFB SUNNY     77  61  56 VRB3      30.14F
DAYTON GENERAL FAIR      77  60  55 SE5       30.14F
WILMINGTON     FAIR      79  62  56 NW5       30.14F
$$

OHZ036-037-039>041-045>050-054>059-063>069-073>076-082>088-251800-
  CENTRAL AND SOUTHEAST OHIO

CITY           SKY/WX    TMP DP  RH WIND       PRES   REMARKS
COLUMBUS       FAIR      75  55  49 VRB3      30.15F
OSU AIRPORT    FAIR      75  57  53 VRB3      30.15F
BOLTON FIELD   SUNNY     75  57  53 CALM      30.16F
RICKENBACK AFB FAIR      74  57  56 CALM      30.15S
NEWARK         FAIR      74  50  42 CALM      30.15F
MARION         FAIR      75  48  38 S6        30.16F
LANCASTER      FAIR      76  53  44 SE8       30.15F
ZANESVILLE     FAIR      75  48  38 N6        30.15F
NEW PHILLY     FAIR      74  50  42 VRB3      30.17F
$$



USA.gov is the U.S. government's official web portal to all federal, state and local government web resources and services.